This is the latest recevied weather packets stored in our database for station/object WX4LTG. If no packets are shown the sender has not sent any weather packets the latest 10 day(s).
| Time | Temp. | Humidity | Pressure | Rain* | Wind** | Luminosity | Snow |
|---|---|---|---|---|---|---|---|
| 1777219855 | 21.11° C | 33% | 1010.4 hPa | 0 mm | - | 436 W/m² | - |
| 1777219553 | 20° C | 34% | 1010.5 hPa | 0 mm | - | 387 W/m² | - |
| 1777219249 | 19.44° C | 36% | 1010.5 hPa | 0 mm | - | 147 W/m² | - |
| 1777218945 | 19.44° C | 36% | 1010.3 hPa | 0 mm | - | 116 W/m² | - |
| 1777218641 | 19.44° C | 36% | 1010.4 hPa | 0 mm | - | 90 W/m² | - |
| 1777218336 | 19.44° C | 36% | 1010.4 hPa | 0 mm | - | 95 W/m² | - |
| 1777218033 | 20° C | 36% | 1010.3 hPa | 0 mm | - | 129 W/m² | - |
| 1777217728 | 20° C | 35% | 1010.5 hPa | 0 mm | - | 124 W/m² | - |
| 1777217425 | 20° C | 35% | 1010.3 hPa | 0 mm | - | 157 W/m² | - |
| 1777217121 | 20° C | 35% | 1010 hPa | 0 mm | - | 370 W/m² | - |
| 1777216818 | 20° C | 35% | 1010.2 hPa | 0 mm | - | 295 W/m² | - |
| 1777216515 | 20° C | 35% | 1009.9 hPa | 0 mm | - | 274 W/m² | - |
| 1777216210 | 20° C | 36% | 1010.2 hPa | 0 mm | - | 261 W/m² | - |
| 1777215909 | 20.56° C | 35% | 1010 hPa | 0 mm | - | 245 W/m² | - |
| 1777215605 | 20° C | 36% | 1009.8 hPa | 0 mm | - | 229 W/m² | - |
| 1777215301 | 20° C | 36% | 1010 hPa | 0 mm | - | 215 W/m² | - |
| 1777214997 | 19.44° C | 36% | 1009.9 hPa | 0 mm | - | 202 W/m² | - |
| 1777214697 | 20° C | 37% | 1009.7 hPa | 0 mm | - | 186 W/m² | - |
| 1777214391 | 19.44° C | 38% | 1009.7 hPa | 0 mm | - | 171 W/m² | - |
| 1777214091 | 18.89° C | 39% | 1009.6 hPa | 0 mm | - | 160 W/m² | - |
| 1777213791 | 18.89° C | 39% | 1009.6 hPa | 0 mm | - | 142 W/m² | - |
| 1777213487 | 18.89° C | 39% | 1009.4 hPa | 0 mm | - | 115 W/m² | - |
| 1777213184 | 18.89° C | 39% | 1009.3 hPa | 0 mm | - | 122 W/m² | - |
| 1777212880 | 18.89° C | 39% | 1009.4 hPa | 0 mm | - | 59 W/m² | - |
| 1777212578 | 18.89° C | 39% | 1009.4 hPa | 0 mm | - | 86 W/m² | - |
* Rain latest hour (hover to see other rain measurements)
** Current wind speed in m/s (hover to see current wind gust speed)